Time,TemperatureF,DewpointF,PressureIn,WindDirection,WindDirectionDegrees,WindSpeedMPH,WindSpeedGustMPH,Humidity,HourlyPrecipIn,Conditions,Clouds,dailyrainin,SoftwareType,DateUTC
2013-08-08 00:01:00,74.0,73.0,29.90,WSW,247,0.0,0.0,99,0.00,,,0.00,Rainwise IP-100,2013-08-08 05:01:00,
2013-08-08 00:06:00,74.0,73.0,29.90,WSW,247,0.0,2.0,99,0.00,,,0.00,Rainwise IP-100,2013-08-08 05:06:00,
2013-08-08 00:11:00,74.0,73.0,29.90,WSW,247,0.0,2.0,99,0.00,,,0.00,Rainwise IP-100,2013-08-08 05:11:00,
2013-08-08 00:16:00,74.0,73.0,29.90,North,360,0.0,2.0,99,0.00,,,0.00,Rainwise IP-100,2013-08-08 05:16:00,
2013-08-08 00:21:00,74.0,73.0,29.90,North,360,0.0,0.0,99,0.00,,,0.00,Rainwise IP-100,2013-08-08 05:21:00,
2013-08-08 00:26:00,74.0,73.0,29.89,North,360,0.0,0.0,99,0.00,,,0.00,Rainwise IP-100,2013-08-08 05:26:00,
2013-08-08 00:31:00,74.0,73.0,29.89,North,360,0.0,0.0,99,0.00,,,0.00,Rainwise IP-100,2013-08-08 05:31:00,
2013-08-08 00:36:00,75.0,74.0,29.89,North,360,2.0,2.0,99,0.00,,,0.00,Rainwise IP-100,2013-08-08 05:36:00,
2013-08-08 00:41:00,75.0,74.0,29.89,North,360,1.0,2.0,99,0.00,,,0.00,Rainwise IP-100,2013-08-08 05:41:00,
2013-08-08 00:46:00,75.0,74.0,29.89,North,360,0.0,1.0,99,0.00,,,0.00,Rainwise IP-100,2013-08-08 05:46:00,
2013-08-08 00:51:00,75.0,74.0,29.89,North,360,0.0,0.0,99,0.00,,,0.00,Rainwise IP-100,2013-08-08 05:51:00,
2013-08-08 00:56:00,75.0,74.0,29.89,North,360,0.0,0.0,99,0.00,,,0.00,Rainwise IP-100,2013-08-08 05:56:00,
2013-08-08 01:01:00,75.0,74.0,29.89,North,360,0.0,0.0,99,0.00,,,0.00,Rainwise IP-100,2013-08-08 06:01:00,
2013-08-08 01:06:00,74.0,73.0,29.89,SE,135,0.0,4.0,99,0.00,,,0.00,Rainwise IP-100,2013-08-08 06:06:00,
2013-08-08 01:11:00,74.0,73.0,29.89,South,180,2.0,3.0,99,0.00,,,0.00,Rainwise IP-100,2013-08-08 06:11:00,
2013-08-08 01:16:00,74.0,73.0,29.89,South,180,2.0,3.0,99,0.00,,,0.00,Rainwise IP-100,2013-08-08 06:16:00,
2013-08-08 01:21:00,74.0,73.0,29.89,South,180,0.0,3.0,99,0.00,,,0.00,Rainwise IP-100,2013-08-08 06:21:00,
2013-08-08 01:26:00,74.0,73.0,29.89,South,180,0.0,0.0,99,0.00,,,0.00,Rainwise IP-100,2013-08-08 06:26:00,
2013-08-08 01:31:00,74.0,73.0,29.89,South,180,0.0,0.0,99,0.00,,,0.00,Rainwise IP-100,2013-08-08 06:31:00,
2013-08-08 01:36:00,74.0,73.0,29.89,South,180,0.0,0.0,99,0.00,,,0.00,Rainwise IP-100,2013-08-08 06:36:00,
2013-08-08 01:41:00,74.0,73.0,29.89,South,180,0.0,0.0,99,0.00,,,0.00,Rainwise IP-100,2013-08-08 06:41:00,
2013-08-08 01:46:00,74.0,73.0,29.90,South,180,0.0,0.0,99,0.00,,,0.00,Rainwise IP-100,2013-08-08 06:46:00,
2013-08-08 01:51:00,74.0,73.0,29.90,South,180,0.0,0.0,99,0.00,,,0.00,Rainwise IP-100,2013-08-08 06:51:00,
2013-08-08 01:56:00,74.0,73.0,29.89,South,180,0.0,0.0,99,0.00,,,0.00,Rainwise IP-100,2013-08-08 06:56:00,
2013-08-08 02:01:00,74.0,73.0,29.89,South,180,0.0,0.0,99,0.00,,,0.00,Rainwise IP-100,2013-08-08 07:01:00,
2013-08-08 02:06:00,74.0,73.0,29.89,South,180,0.0,0.0,99,0.00,,,0.00,Rainwise IP-100,2013-08-08 07:06:00,
2013-08-08 02:11:00,74.0,73.0,29.89,South,180,0.0,0.0,99,0.00,,,0.00,Rainwise IP-100,2013-08-08 07:11:00,
2013-08-08 02:16:00,74.0,73.0,29.89,South,180,0.0,0.0,99,0.00,,,0.00,Rainwise IP-100,2013-08-08 07:16:00,
2013-08-08 02:21:00,74.0,73.0,29.89,South,180,0.0,0.0,99,0.00,,,0.00,Rainwise IP-100,2013-08-08 07:21:00,
2013-08-08 02:26:00,74.0,73.0,29.89,South,180,0.0,0.0,99,0.00,,,0.00,Rainwise IP-100,2013-08-08 07:26:00,
2013-08-08 02:31:00,74.0,73.0,29.89,South,180,0.0,0.0,99,0.00,,,0.00,Rainwise IP-100,2013-08-08 07:31:00,
2013-08-08 02:36:00,74.0,73.0,29.89,SSW,202,2.0,4.0,99,0.00,,,0.00,Rainwise IP-100,2013-08-08 07:36:00,
2013-08-08 02:41:00,74.0,73.0,29.89,SSW,202,0.0,3.0,99,0.00,,,0.00,Rainwise IP-100,2013-08-08 07:41:00,
2013-08-08 02:46:00,74.0,73.0,29.88,SSW,202,0.0,2.0,99,0.00,,,0.00,Rainwise IP-100,2013-08-08 07:46:00,
2013-08-08 02:51:00,73.0,72.0,29.88,SSW,202,0.0,1.0,99,0.00,,,0.00,Rainwise IP-100,2013-08-08 07:51:00,
2013-08-08 02:56:00,73.0,72.0,29.89,West,270,1.0,1.0,99,0.00,,,0.00,Rainwise IP-100,2013-08-08 07:56:00,
2013-08-08 03:01:00,73.0,72.0,29.89,West,270,0.0,2.0,99,0.00,,,0.00,Rainwise IP-100,2013-08-08 08:01:00,
2013-08-08 03:06:00,73.0,72.0,29.89,West,270,2.0,2.0,99,0.00,,,0.00,Rainwise IP-100,2013-08-08 08:06:00,
2013-08-08 03:11:00,73.0,72.0,29.87,West,270,0.0,2.0,99,0.00,,,0.00,Rainwise IP-100,2013-08-08 08:11:00,
2013-08-08 03:16:00,73.0,72.0,29.88,West,270,2.0,2.0,99,0.00,,,0.00,Rainwise IP-100,2013-08-08 08:16:00,
2013-08-08 03:21:00,73.0,72.0,29.88,West,270,0.0,3.0,99,0.00,,,0.00,Rainwise IP-100,2013-08-08 08:21:00,
2013-08-08 03:26:00,73.0,72.0,29.87,West,270,0.0,1.0,99,0.00,,,0.00,Rainwise IP-100,2013-08-08 08:26:00,
2013-08-08 03:31:00,73.0,72.0,29.87,West,270,0.0,2.0,99,0.00,,,0.00,Rainwise IP-100,2013-08-08 08:31:00,
2013-08-08 03:36:00,73.0,72.0,29.87,West,270,1.0,3.0,99,0.00,,,0.00,Rainwise IP-100,2013-08-08 08:36:00,
2013-08-08 03:41:00,73.0,72.0,29.87,West,270,0.0,3.0,99,0.00,,,0.00,Rainwise IP-100,2013-08-08 08:41:00,
2013-08-08 03:46:00,73.0,72.0,29.87,West,270,0.0,0.0,99,0.00,,,0.00,Rainwise IP-100,2013-08-08 08:46:00,
2013-08-08 03:51:00,73.0,72.0,29.87,West,270,0.0,0.0,99,0.00,,,0.00,Rainwise IP-100,2013-08-08 08:51:00,
2013-08-08 03:56:00,74.0,73.0,29.86,West,270,0.0,0.0,99,0.00,,,0.00,Rainwise IP-100,2013-08-08 08:56:00,
2013-08-08 04:01:00,74.0,73.0,29.86,West,270,2.0,3.0,99,0.00,,,0.00,Rainwise IP-100,2013-08-08 09:01:00,
2013-08-08 04:06:00,73.0,72.0,29.86,West,270,2.0,3.0,99,0.00,,,0.00,Rainwise IP-100,2013-08-08 09:06:00,
2013-08-08 04:11:00,73.0,72.0,29.86,West,270,0.0,2.0,99,0.00,,,0.00,Rainwise IP-100,2013-08-08 09:11:00,
2013-08-08 04:16:00,73.0,72.0,29.87,SW,225,2.0,2.0,99,0.00,,,0.00,Rainwise IP-100,2013-08-08 09:16:00,
2013-08-08 04:21:00,73.0,72.0,29.87,SW,225,2.0,3.0,99,0.00,,,0.00,Rainwise IP-100,2013-08-08 09:21:00,
2013-08-08 04:26:00,73.0,72.0,29.87,SW,225,1.0,3.0,99,0.00,,,0.00,Rainwise IP-100,2013-08-08 09:26:00,
2013-08-08 04:31:00,74.0,73.0,29.87,SSW,202,0.0,3.0,99,0.00,,,0.00,Rainwise IP-100,2013-08-08 09:31:00,
2013-08-08 04:36:00,74.0,73.0,29.87,SSW,202,0.0,4.0,99,0.00,,,0.00,Rainwise IP-100,2013-08-08 09:36:00,
2013-08-08 04:41:00,74.0,73.0,29.87,South,180,0.0,3.0,99,0.00,,,0.00,Rainwise IP-100,2013-08-08 09:41:00,
2013-08-08 04:46:00,74.0,73.0,29.88,South,180,0.0,0.0,99,0.00,,,0.00,Rainwise IP-100,2013-08-08 09:46:00,
2013-08-08 04:51:00,74.0,73.0,29.88,South,180,0.0,0.0,99,0.00,,,0.00,Rainwise IP-100,2013-08-08 09:51:00,
2013-08-08 04:56:00,74.0,73.0,29.88,South,180,0.0,0.0,99,0.00,,,0.00,Rainwise IP-100,2013-08-08 09:56:00,
2013-08-08 05:01:00,74.0,73.0,29.88,South,180,0.0,0.0,99,0.00,,,0.00,Rainwise IP-100,2013-08-08 10:01:00,
2013-08-08 05:06:00,74.0,73.0,29.88,SW,225,0.0,3.0,99,0.00,,,0.00,Rainwise IP-100,2013-08-08 10:06:00,
2013-08-08 05:09:00,74.0,73.0,29.88,SW,225,0.0,3.0,99,0.00,,,0.00,Rainwise IP-100,2013-08-08 10:09:00,
2013-08-08 05:14:00,74.0,73.0,29.88,South,180,0.0,4.0,99,0.00,,,0.00,Rainwise IP-100,2013-08-08 10:14:00,
2013-08-08 05:19:00,74.0,73.0,29.88,SE,135,0.0,1.0,99,0.00,,,0.00,Rainwise IP-100,2013-08-08 10:19:00,
2013-08-08 05:24:00,74.0,73.0,29.88,SE,135,0.0,3.0,99,0.00,,,0.00,Rainwise IP-100,2013-08-08 10:24:00,
2013-08-08 05:29:00,74.0,73.0,29.88,South,180,0.0,0.0,99,0.00,,,0.00,Rainwise IP-100,2013-08-08 10:29:00,
2013-08-08 05:34:00,73.0,72.0,29.88,South,180,0.0,0.0,99,0.00,,,0.00,Rainwise IP-100,2013-08-08 10:34:00,
2013-08-08 05:39:00,73.0,72.0,29.88,South,180,0.0,2.0,99,0.00,,,0.00,Rainwise IP-100,2013-08-08 10:39:00,
2013-08-08 05:44:00,73.0,72.0,29.89,South,180,0.0,0.0,99,0.00,,,0.00,Rainwise IP-100,2013-08-08 10:44:00,
2013-08-08 05:46:00,73.0,72.0,29.89,South,180,0.0,0.0,99,0.00,,,0.00,Rainwise IP-100,2013-08-08 10:46:00,
2013-08-08 05:50:00,73.0,72.0,29.89,South,180,3.0,0.0,99,0.00,,,0.00,Rainwise IP-100,2013-08-08 10:50:00,
2013-08-08 05:55:00,73.0,72.0,29.88,South,180,2.0,3.0,99,0.00,,,0.00,Rainwise IP-100,2013-08-08 10:55:00,
2013-08-08 06:00:00,73.0,72.0,29.88,South,180,1.0,3.0,99,0.00,,,0.00,Rainwise IP-100,2013-08-08 11:00:00,
2013-08-08 06:05:00,73.0,72.0,29.88,SW,225,0.0,2.0,99,0.00,,,0.00,Rainwise IP-100,2013-08-08 11:05:00,
2013-08-08 06:10:00,73.0,72.0,29.88,SW,225,0.0,0.0,99,0.00,,,0.00,Rainwise IP-100,2013-08-08 11:10:00,
2013-08-08 06:15:00,73.0,72.0,29.88,SW,225,0.0,0.0,99,0.00,,,0.00,Rainwise IP-100,2013-08-08 11:15:00,
2013-08-08 06:20:00,73.0,72.0,29.88,SW,225,0.0,0.0,99,0.00,,,0.00,Rainwise IP-100,2013-08-08 11:20:00,
2013-08-08 06:25:00,73.0,72.0,29.88,SW,225,0.0,0.0,99,0.00,,,0.00,Rainwise IP-100,2013-08-08 11:25:00,
2013-08-08 06:30:00,73.0,72.0,29.88,South,180,2.0,3.0,99,0.00,,,0.00,Rainwise IP-100,2013-08-08 11:30:00,
2013-08-08 06:35:00,73.0,72.0,29.88,South,180,0.0,3.0,99,0.00,,,0.00,Rainwise IP-100,2013-08-08 11:35:00,
2013-08-08 06:40:00,73.0,72.0,29.88,South,180,0.0,0.0,99,0.00,,,0.00,Rainwise IP-100,2013-08-08 11:40:00,
2013-08-08 06:45:00,73.0,72.0,29.88,SE,135,0.0,0.0,99,0.00,,,0.00,Rainwise IP-100,2013-08-08 11:45:00,
2013-08-08 06:50:00,73.0,72.0,29.88,SE,135,0.0,0.0,99,0.00,,,0.00,Rainwise IP-100,2013-08-08 11:50:00,
2013-08-08 06:55:00,73.0,72.0,29.89,SE,135,0.0,1.0,99,0.00,,,0.00,Rainwise IP-100,2013-08-08 11:55:00,
2013-08-08 07:00:00,73.0,72.0,29.89,SE,135,0.0,0.0,99,0.00,,,0.00,Rainwise IP-100,2013-08-08 12:00:00,
2013-08-08 07:05:00,74.0,73.0,29.89,SE,135,0.0,0.0,99,0.00,,,0.00,Rainwise IP-100,2013-08-08 12:05:00,
2013-08-08 07:10:00,74.0,73.0,29.89,SE,135,0.0,0.0,99,0.00,,,0.00,Rainwise IP-100,2013-08-08 12:10:00,
2013-08-08 07:15:00,75.0,74.0,29.89,SE,135,0.0,2.0,99,0.00,,,0.00,Rainwise IP-100,2013-08-08 12:15:00,
2013-08-08 07:20:00,75.0,74.0,29.89,SE,135,0.0,2.0,99,0.00,,,0.00,Rainwise IP-100,2013-08-08 12:20:00,
2013-08-08 07:25:00,74.0,73.0,29.90,NE,45,4.0,6.0,99,0.00,,,0.00,Rainwise IP-100,2013-08-08 12:25:00,
2013-08-08 07:30:00,74.0,73.0,29.90,NE,45,2.0,6.0,99,0.00,,,0.00,Rainwise IP-100,2013-08-08 12:30:00,
2013-08-08 07:35:00,75.0,74.0,29.91,NE,45,3.0,6.0,99,0.00,,,0.00,Rainwise IP-100,2013-08-08 12:35:00,
2013-08-08 07:40:00,75.0,74.0,29.91,NE,45,3.0,5.0,99,0.00,,,0.00,Rainwise IP-100,2013-08-08 12:40:00,
2013-08-08 07:45:00,76.0,76.0,29.91,ENE,67,0.0,5.0,100,0.00,,,0.00,Rainwise IP-100,2013-08-08 12:45:00,
2013-08-08 07:50:00,76.0,76.0,29.91,SSE,157,1.0,4.0,100,0.00,,,0.00,Rainwise IP-100,2013-08-08 12:50:00,
2013-08-08 07:55:00,76.0,76.0,29.91,ENE,67,2.0,5.0,100,0.00,,,0.00,Rainwise IP-100,2013-08-08 12:55:00,
2013-08-08 08:00:00,77.0,77.0,29.91,East,90,1.0,7.0,100,0.00,,,0.00,Rainwise IP-100,2013-08-08 13:00:00,
2013-08-08 08:02:00,78.0,78.0,29.91,ENE,67,3.0,7.0,100,0.00,,,0.00,Rainwise IP-100,2013-08-08 13:02:00,
2013-08-08 08:07:00,77.0,77.0,29.91,South,180,3.0,4.0,100,0.00,,,0.00,Rainwise IP-100,2013-08-08 13:07:00,
2013-08-08 08:12:00,78.0,78.0,29.91,SSE,157,3.0,4.0,100,0.00,,,0.00,Rainwise IP-100,2013-08-08 13:12:00,
2013-08-08 08:17:00,79.0,79.0,29.91,ENE,67,3.0,4.0,100,0.00,,,0.00,Rainwise IP-100,2013-08-08 13:17:00,
2013-08-08 08:22:00,78.0,77.0,29.91,SE,135,3.0,5.0,98,0.00,,,0.00,Rainwise IP-100,2013-08-08 13:22:00,
2013-08-08 08:27:00,77.0,75.0,29.92,SSW,202,3.0,4.0,95,0.00,,,0.00,Rainwise IP-100,2013-08-08 13:27:00,
2013-08-08 08:32:00,77.0,75.0,29.92,SW,225,1.0,4.0,95,0.00,,,0.00,Rainwise IP-100,2013-08-08 13:32:00,
2013-08-08 08:37:00,78.0,76.0,29.93,South,180,1.0,4.0,95,0.00,,,0.00,Rainwise IP-100,2013-08-08 13:37:00,
2013-08-08 08:42:00,77.0,75.0,29.93,SE,135,1.0,6.0,94,0.00,,,0.00,Rainwise IP-100,2013-08-08 13:42:00,
2013-08-08 08:47:00,77.0,75.0,29.93,SE,135,1.0,3.0,94,0.00,,,0.00,Rainwise IP-100,2013-08-08 13:47:00,
2013-08-08 08:52:00,79.0,76.0,29.93,SSE,157,0.0,3.0,93,0.00,,,0.00,Rainwise IP-100,2013-08-08 13:52:00,
2013-08-08 08:57:00,79.0,76.0,29.92,SSW,202,3.0,3.0,90,0.00,,,0.00,Rainwise IP-100,2013-08-08 13:57:00,
2013-08-08 09:02:00,78.0,75.0,29.92,SSE,157,1.0,5.0,91,0.00,,,0.00,Rainwise IP-100,2013-08-08 14:02:00,
2013-08-08 09:07:00,78.0,75.0,29.93,South,180,2.0,4.0,91,0.00,,,0.00,Rainwise IP-100,2013-08-08 14:07:00,
2013-08-08 09:12:00,79.0,76.0,29.93,SSW,202,1.0,4.0,91,0.00,,,0.00,Rainwise IP-100,2013-08-08 14:12:00,
2013-08-08 09:17:00,79.0,76.0,29.92,SSE,157,0.0,4.0,92,0.00,,,0.00,Rainwise IP-100,2013-08-08 14:17:00,
2013-08-08 09:22:00,79.0,76.0,29.92,South,180,0.0,3.0,91,0.00,,,0.00,Rainwise IP-100,2013-08-08 14:22:00,
2013-08-08 09:27:00,80.0,76.0,29.92,SSE,157,0.0,1.0,90,0.00,,,0.00,Rainwise IP-100,2013-08-08 14:27:00,
2013-08-08 09:32:00,79.0,74.0,29.92,ESE,112,3.0,5.0,87,0.00,,,0.00,Rainwise IP-100,2013-08-08 14:32:00,
2013-08-08 09:37:00,80.0,76.0,29.92,SE,135,0.0,3.0,88,0.00,,,0.00,Rainwise IP-100,2013-08-08 14:37:00,
2013-08-08 09:42:00,81.0,76.0,29.92,SSE,157,0.0,2.0,86,0.00,,,0.00,Rainwise IP-100,2013-08-08 14:42:00,
2013-08-08 09:47:00,81.0,75.0,29.92,South,180,2.0,6.0,83,0.00,,,0.00,Rainwise IP-100,2013-08-08 14:47:00,
2013-08-08 09:52:00,82.0,76.0,29.92,ESE,112,0.0,5.0,84,0.00,,,0.00,Rainwise IP-100,2013-08-08 14:52:00,
2013-08-08 09:57:00,82.0,76.0,29.93,East,90,1.0,4.0,83,0.00,,,0.00,Rainwise IP-100,2013-08-08 14:57:00,
2013-08-08 10:02:00,83.0,76.0,29.93,NE,45,1.0,4.0,80,0.00,,,0.00,Rainwise IP-100,2013-08-08 15:02:00,
2013-08-08 10:07:00,83.0,75.0,29.93,NE,45,1.0,4.0,78,0.00,,,0.00,Rainwise IP-100,2013-08-08 15:07:00,
2013-08-08 10:12:00,83.0,74.0,29.93,ENE,67,1.0,5.0,76,0.00,,,0.00,Rainwise IP-100,2013-08-08 15:12:00,
2013-08-08 10:17:00,82.0,74.0,29.93,NNE,22,4.0,6.0,78,0.00,,,0.00,Rainwise IP-100,2013-08-08 15:17:00,
2013-08-08 10:22:00,83.0,75.0,29.93,NE,45,3.0,5.0,77,0.00,,,0.00,Rainwise IP-100,2013-08-08 15:22:00,
2013-08-08 10:27:00,84.0,76.0,29.92,NE,45,0.0,6.0,76,0.00,,,0.00,Rainwise IP-100,2013-08-08 15:27:00,
2013-08-08 10:32:00,83.0,75.0,29.92,East,90,3.0,7.0,78,0.00,,,0.00,Rainwise IP-100,2013-08-08 15:32:00,
2013-08-08 10:37:00,83.0,75.0,29.93,ESE,112,3.0,4.0,77,0.00,,,0.00,Rainwise IP-100,2013-08-08 15:37:00,
2013-08-08 10:42:00,83.0,75.0,29.93,NE,45,0.0,3.0,77,0.00,,,0.00,Rainwise IP-100,2013-08-08 15:42:00,
2013-08-08 10:47:00,85.0,76.0,29.92,NE,45,3.0,4.0,74,0.00,,,0.00,Rainwise IP-100,2013-08-08 15:47:00,
2013-08-08 10:52:00,86.0,76.0,29.92,North,360,2.0,4.0,72,0.00,,,0.00,Rainwise IP-100,2013-08-08 15:52:00,
2013-08-08 10:57:00,86.0,73.0,29.91,East,90,1.0,3.0,67,0.00,,,0.00,Rainwise IP-100,2013-08-08 15:57:00,
2013-08-08 11:02:00,87.0,74.0,29.91,SE,135,0.0,4.0,67,0.00,,,0.00,Rainwise IP-100,2013-08-08 16:02:00,
2013-08-08 11:07:00,87.0,74.0,29.91,ENE,67,3.0,3.0,66,0.00,,,0.00,Rainwise IP-100,2013-08-08 16:07:00,
2013-08-08 11:12:00,86.0,74.0,29.91,SE,135,2.0,5.0,69,0.00,,,0.00,Rainwise IP-100,2013-08-08 16:12:00,
2013-08-08 11:17:00,85.0,74.0,29.91,SW,225,3.0,5.0,70,0.00,,,0.00,Rainwise IP-100,2013-08-08 16:17:00,
2013-08-08 11:22:00,86.0,75.0,29.91,SW,225,0.0,4.0,70,0.00,,,0.00,Rainwise IP-100,2013-08-08 16:22:00,
2013-08-08 11:27:00,86.0,74.0,29.91,SE,135,2.0,4.0,68,0.00,,,0.00,Rainwise IP-100,2013-08-08 16:27:00,
2013-08-08 11:32:00,85.0,75.0,29.91,SSW,202,1.0,6.0,73,0.00,,,0.00,Rainwise IP-100,2013-08-08 16:32:00,
2013-08-08 11:37:00,84.0,75.0,29.93,SSE,157,3.0,6.0,75,0.00,,,0.00,Rainwise IP-100,2013-08-08 16:37:00,
2013-08-08 11:42:00,84.0,75.0,29.93,SSE,157,3.0,3.0,75,0.00,,,0.00,Rainwise IP-100,2013-08-08 16:42:00,
2013-08-08 11:47:00,86.0,76.0,29.91,SW,225,1.0,3.0,73,0.00,,,0.00,Rainwise IP-100,2013-08-08 16:47:00,
2013-08-08 11:52:00,86.0,75.0,29.91,SSE,157,4.0,4.0,71,0.00,,,0.00,Rainwise IP-100,2013-08-08 16:52:00,
2013-08-08 11:57:00,85.0,74.0,29.92,NW,315,6.0,6.0,72,0.00,,,0.00,Rainwise IP-100,2013-08-08 16:57:00,
2013-08-08 12:02:00,85.0,75.0,29.92,West,270,3.0,6.0,73,0.00,,,0.00,Rainwise IP-100,2013-08-08 17:02:00,
2013-08-08 12:07:00,86.0,76.0,29.91,South,180,1.0,3.0,72,0.00,,,0.00,Rainwise IP-100,2013-08-08 17:07:00,
2013-08-08 12:12:00,86.0,75.0,29.91,NW,315,0.0,3.0,70,0.00,,,0.00,Rainwise IP-100,2013-08-08 17:12:00,
2013-08-08 12:17:00,87.0,76.0,29.91,South,180,1.0,3.0,70,0.00,,,0.00,Rainwise IP-100,2013-08-08 17:17:00,
2013-08-08 12:22:00,87.0,76.0,29.91,South,180,0.0,3.0,70,0.00,,,0.00,Rainwise IP-100,2013-08-08 17:22:00,
2013-08-08 12:27:00,87.0,75.0,29.91,SW,225,1.0,3.0,68,0.00,,,0.00,Rainwise IP-100,2013-08-08 17:27:00,
2013-08-08 12:32:00,87.0,75.0,29.91,SW,225,2.0,2.0,69,0.00,,,0.00,Rainwise IP-100,2013-08-08 17:32:00,
2013-08-08 12:37:00,86.0,75.0,29.91,WSW,247,1.0,3.0,70,0.00,,,0.00,Rainwise IP-100,2013-08-08 17:37:00,
2013-08-08 12:42:00,85.0,75.0,29.91,WSW,247,2.0,2.0,73,0.00,,,0.00,Rainwise IP-100,2013-08-08 17:42:00,
2013-08-08 12:47:00,85.0,75.0,29.91,WSW,247,2.0,2.0,73,0.00,,,0.00,Rainwise IP-100,2013-08-08 17:47:00,
2013-08-08 12:52:00,85.0,76.0,29.92,SW,225,0.0,2.0,75,0.00,,,0.00,Rainwise IP-100,2013-08-08 17:52:00,
2013-08-08 12:57:00,84.0,74.0,29.91,West,270,3.0,3.0,73,0.00,,,0.00,Rainwise IP-100,2013-08-08 17:57:00,
2013-08-08 13:02:00,84.0,76.0,29.91,West,270,0.0,3.0,76,0.00,,,0.00,Rainwise IP-100,2013-08-08 18:02:00,
2013-08-08 13:07:00,83.0,75.0,29.92,West,270,2.0,5.0,77,0.00,,,0.00,Rainwise IP-100,2013-08-08 18:07:00,
2013-08-08 13:12:00,83.0,76.0,29.92,West,270,1.0,3.0,79,0.00,,,0.00,Rainwise IP-100,2013-08-08 18:12:00,
2013-08-08 13:17:00,83.0,76.0,29.93,West,270,1.0,3.0,79,0.00,,,0.00,Rainwise IP-100,2013-08-08 18:17:00,
2013-08-08 13:22:00,83.0,76.0,29.93,NW,315,0.0,2.0,80,0.00,,,0.00,Rainwise IP-100,2013-08-08 18:22:00,
2013-08-08 13:28:00,83.0,76.0,29.92,NNW,337,1.0,2.0,79,0.00,,,0.00,Rainwise IP-100,2013-08-08 18:28:00,
2013-08-08 13:33:00,83.0,75.0,29.92,ENE,67,3.0,6.0,77,0.00,,,0.00,Rainwise IP-100,2013-08-08 18:33:00,
2013-08-08 13:38:00,83.0,75.0,29.90,North,360,0.0,6.0,77,0.00,,,0.00,Rainwise IP-100,2013-08-08 18:38:00,
2013-08-08 13:43:00,83.0,75.0,29.88,ENE,67,3.0,5.0,78,0.00,,,0.00,Rainwise IP-100,2013-08-08 18:43:00,
2013-08-08 13:49:00,82.0,74.0,29.88,SSW,202,2.0,4.0,79,0.00,,,0.00,Rainwise IP-100,2013-08-08 18:49:00,
2013-08-08 13:54:00,81.0,76.0,29.91,SSW,202,1.0,3.0,84,0.00,,,0.00,Rainwise IP-100,2013-08-08 18:54:00,
2013-08-08 13:59:00,80.0,75.0,29.91,SSW,202,0.0,1.0,85,0.00,,,0.00,Rainwise IP-100,2013-08-08 18:59:00,
2013-08-08 14:04:00,80.0,74.0,29.91,ENE,67,1.0,1.0,84,0.00,,,0.00,Rainwise IP-100,2013-08-08 19:04:00,
2013-08-08 14:09:00,79.0,74.0,29.90,SE,135,4.0,4.0,85,0.00,,,0.00,Rainwise IP-100,2013-08-08 19:09:00,
2013-08-08 14:14:00,79.0,74.0,29.90,SE,135,4.0,4.0,86,0.00,,,0.00,Rainwise IP-100,2013-08-08 19:14:00,
2013-08-08 14:19:00,79.0,74.0,29.89,SE,135,0.0,6.0,86,0.00,,,0.00,Rainwise IP-100,2013-08-08 19:19:00,
2013-08-08 14:24:00,79.0,75.0,29.89,SE,135,0.0,0.0,89,0.00,,,0.00,Rainwise IP-100,2013-08-08 19:24:00,
2013-08-08 14:29:00,79.0,75.0,29.89,SE,135,0.0,0.0,89,0.00,,,0.00,Rainwise IP-100,2013-08-08 19:29:00,
2013-08-08 14:34:00,78.0,75.0,29.89,NE,45,2.0,3.0,91,0.00,,,0.00,Rainwise IP-100,2013-08-08 19:34:00,
2013-08-08 14:39:00,78.0,76.0,29.88,North,360,0.0,3.0,94,0.00,,,0.00,Rainwise IP-100,2013-08-08 19:39:00,
2013-08-08 14:44:00,78.0,76.0,29.88,North,360,0.0,2.0,94,0.00,,,0.00,Rainwise IP-100,2013-08-08 19:44:00,
2013-08-08 14:49:00,77.0,76.0,29.88,North,360,0.0,0.0,96,0.00,,,0.00,Rainwise IP-100,2013-08-08 19:49:00,
2013-08-08 14:54:00,77.0,76.0,29.88,North,360,3.0,4.0,98,0.00,,,0.00,Rainwise IP-100,2013-08-08 19:54:00,
2013-08-08 14:59:00,77.0,76.0,29.88,North,360,0.0,3.0,98,0.00,,,0.00,Rainwise IP-100,2013-08-08 19:59:00,
2013-08-08 15:04:00,77.0,77.0,29.89,SW,225,2.0,2.0,100,0.00,,,0.00,Rainwise IP-100,2013-08-08 20:04:00,
2013-08-08 15:09:00,76.0,75.0,29.89,ENE,67,5.0,6.0,99,0.00,,,0.00,Rainwise IP-100,2013-08-08 20:09:00,
2013-08-08 15:14:00,76.0,75.0,29.88,SE,135,4.0,7.0,99,0.00,,,0.00,Rainwise IP-100,2013-08-08 20:14:00,
2013-08-08 15:19:00,76.0,75.0,29.88,ENE,67,2.0,6.0,99,0.00,,,0.00,Rainwise IP-100,2013-08-08 20:19:00,
2013-08-08 15:24:00,76.0,75.0,29.88,North,360,0.0,6.0,99,0.00,,,0.00,Rainwise IP-100,2013-08-08 20:24:00,
2013-08-08 15:29:00,76.0,75.0,29.87,SE,135,3.0,3.0,98,0.00,,,0.00,Rainwise IP-100,2013-08-08 20:29:00,
2013-08-08 15:34:00,76.0,74.0,29.87,ESE,112,5.0,9.0,96,0.00,,,0.00,Rainwise IP-100,2013-08-08 20:34:00,
2013-08-08 15:39:00,76.0,74.0,29.87,NNE,22,0.0,9.0,96,0.00,,,0.00,Rainwise IP-100,2013-08-08 20:39:00,
2013-08-08 15:44:00,77.0,76.0,29.87,SSE,157,0.0,7.0,96,0.00,,,0.00,Rainwise IP-100,2013-08-08 20:44:00,
2013-08-08 15:49:00,77.0,76.0,29.87,SE,135,0.0,7.0,97,0.00,,,0.00,Rainwise IP-100,2013-08-08 20:49:00,
2013-08-08 15:54:00,77.0,76.0,29.87,SE,135,0.0,3.0,97,0.00,,,0.00,Rainwise IP-100,2013-08-08 20:54:00,
2013-08-08 15:59:00,78.0,76.0,29.87,SE,135,0.0,6.0,95,0.00,,,0.00,Rainwise IP-100,2013-08-08 20:59:00,
2013-08-08 16:04:00,79.0,76.0,29.87,East,90,0.0,5.0,93,0.00,,,0.00,Rainwise IP-100,2013-08-08 21:04:00,
2013-08-08 16:09:00,78.0,76.0,29.87,East,90,7.0,8.0,93,0.00,,,0.00,Rainwise IP-100,2013-08-08 21:09:00,
2013-08-08 16:14:00,78.0,75.0,29.87,ENE,67,4.0,10.0,91,0.00,,,0.00,Rainwise IP-100,2013-08-08 21:14:00,
2013-08-08 16:19:00,78.0,75.0,29.87,SE,135,3.0,7.0,92,0.00,,,0.00,Rainwise IP-100,2013-08-08 21:19:00,
2013-08-08 16:24:00,79.0,76.0,29.87,SE,135,6.0,7.0,91,0.00,,,0.00,Rainwise IP-100,2013-08-08 21:24:00,
2013-08-08 16:29:00,79.0,76.0,29.88,ESE,112,3.0,9.0,90,0.00,,,0.00,Rainwise IP-100,2013-08-08 21:29:00,
2013-08-08 16:34:00,79.0,75.0,29.88,ESE,112,1.0,9.0,89,0.00,,,0.00,Rainwise IP-100,2013-08-08 21:34:00,
2013-08-08 16:39:00,79.0,76.0,29.88,SSE,157,2.0,6.0,90,0.00,,,0.00,Rainwise IP-100,2013-08-08 21:39:00,
2013-08-08 16:44:00,79.0,74.0,29.87,SSW,202,1.0,6.0,86,0.00,,,0.00,Rainwise IP-100,2013-08-08 21:44:00,
2013-08-08 16:49:00,80.0,76.0,29.87,SSE,157,0.0,7.0,88,0.00,,,0.00,Rainwise IP-100,2013-08-08 21:49:00,
2013-08-08 16:54:00,80.0,75.0,29.88,NW,315,0.0,4.0,86,0.00,,,0.00,Rainwise IP-100,2013-08-08 21:54:00,
2013-08-08 16:59:00,80.0,75.0,29.88,NNW,337,1.0,6.0,86,0.00,,,0.00,Rainwise IP-100,2013-08-08 21:59:00,
2013-08-08 17:04:00,81.0,76.0,29.87,East,90,0.0,4.0,85,0.00,,,0.00,Rainwise IP-100,2013-08-08 22:04:00,
2013-08-08 17:09:00,81.0,76.0,29.87,WSW,247,2.0,3.0,84,0.00,,,0.00,Rainwise IP-100,2013-08-08 22:09:00,
2013-08-08 17:14:00,82.0,76.0,29.87,ESE,112,6.0,6.0,82,0.00,,,0.00,Rainwise IP-100,2013-08-08 22:14:00,
2013-08-08 17:19:00,82.0,75.0,29.87,SSE,157,2.0,6.0,80,0.00,,,0.00,Rainwise IP-100,2013-08-08 22:19:00,
2013-08-08 17:24:00,82.0,74.0,29.87,ESE,112,3.0,5.0,79,0.00,,,0.00,Rainwise IP-100,2013-08-08 22:24:00,
2013-08-08 17:29:00,82.0,76.0,29.87,SSE,157,2.0,6.0,82,0.00,,,0.00,Rainwise IP-100,2013-08-08 22:29:00,
2013-08-08 17:34:00,82.0,75.0,29.87,West,270,3.0,4.0,80,0.00,,,0.00,Rainwise IP-100,2013-08-08 22:34:00,
2013-08-08 17:39:00,82.0,76.0,29.87,NW,315,1.0,4.0,82,0.00,,,0.00,Rainwise IP-100,2013-08-08 22:39:00,
2013-08-08 17:44:00,83.0,76.0,29.87,SW,225,3.0,5.0,80,0.00,,,0.00,Rainwise IP-100,2013-08-08 22:44:00,
2013-08-08 17:49:00,81.0,74.0,29.87,WNW,292,5.0,5.0,81,0.00,,,0.00,Rainwise IP-100,2013-08-08 22:49:00,
2013-08-08 17:54:00,82.0,75.0,29.88,SW,225,2.0,6.0,80,0.00,,,0.00,Rainwise IP-100,2013-08-08 22:54:00,
2013-08-08 17:59:00,81.0,75.0,29.88,SW,225,0.0,4.0,82,0.00,,,0.00,Rainwise IP-100,2013-08-08 22:59:00,
2013-08-08 18:04:00,81.0,75.0,29.88,SW,225,0.0,2.0,82,0.00,,,0.00,Rainwise IP-100,2013-08-08 23:04:00,
2013-08-08 18:09:00,81.0,76.0,29.88,SW,225,1.0,2.0,84,0.00,,,0.00,Rainwise IP-100,2013-08-08 23:09:00,
2013-08-08 18:14:00,81.0,76.0,29.87,SW,225,0.0,2.0,84,0.00,,,0.00,Rainwise IP-100,2013-08-08 23:14:00,
2013-08-08 18:19:00,80.0,74.0,29.87,SW,225,0.0,0.0,84,0.00,,,0.00,Rainwise IP-100,2013-08-08 23:19:00,
2013-08-08 18:24:00,80.0,74.0,29.87,SW,225,0.0,0.0,84,0.00,,,0.00,Rainwise IP-100,2013-08-08 23:24:00,
2013-08-08 18:29:00,80.0,75.0,29.87,SW,225,0.0,0.0,85,0.00,,,0.00,Rainwise IP-100,2013-08-08 23:29:00,
2013-08-08 18:34:00,81.0,76.0,29.87,SW,225,0.0,2.0,84,0.00,,,0.00,Rainwise IP-100,2013-08-08 23:34:00,
2013-08-08 18:39:00,81.0,75.0,29.87,SW,225,0.0,2.0,83,0.00,,,0.00,Rainwise IP-100,2013-08-08 23:39:00,
2013-08-08 18:44:00,80.0,74.0,29.88,South,180,1.0,3.0,83,0.00,,,0.00,Rainwise IP-100,2013-08-08 23:44:00,
2013-08-08 18:49:00,80.0,75.0,29.88,South,180,0.0,3.0,85,0.00,,,0.00,Rainwise IP-100,2013-08-08 23:49:00,
2013-08-08 18:54:00,80.0,75.0,29.88,South,180,0.0,2.0,85,0.00,,,0.00,Rainwise IP-100,2013-08-08 23:54:00,
2013-08-08 18:59:00,80.0,75.0,29.87,South,180,0.0,0.0,85,0.00,,,0.00,Rainwise IP-100,2013-08-08 23:59:00,
2013-08-08 19:04:00,80.0,75.0,29.87,South,180,0.0,4.0,85,0.00,,,0.00,Rainwise IP-100,2013-08-09 00:04:00,
2013-08-08 19:09:00,80.0,75.0,29.88,SW,225,0.0,1.0,86,0.00,,,0.00,Rainwise IP-100,2013-08-09 00:09:00,
2013-08-08 19:14:00,80.0,75.0,29.87,SW,225,0.0,1.0,86,0.00,,,0.00,Rainwise IP-100,2013-08-09 00:14:00,
2013-08-08 19:19:00,79.0,74.0,29.87,SW,225,0.0,0.0,87,0.00,,,0.00,Rainwise IP-100,2013-08-09 00:19:00,
2013-08-08 19:24:00,79.0,74.0,29.87,SW,225,0.0,0.0,87,0.00,,,0.00,Rainwise IP-100,2013-08-09 00:24:00,
2013-08-08 19:29:00,78.0,74.0,29.87,SW,225,0.0,0.0,88,0.00,,,0.00,Rainwise IP-100,2013-08-09 00:29:00,
2013-08-08 19:34:00,78.0,74.0,29.88,SW,225,0.0,0.0,88,0.00,,,0.00,Rainwise IP-100,2013-08-09 00:34:00,
2013-08-08 19:39:00,78.0,75.0,29.88,SW,225,0.0,0.0,92,0.00,,,0.00,Rainwise IP-100,2013-08-09 00:39:00,
2013-08-08 19:44:00,77.0,75.0,29.88,SW,225,0.0,0.0,95,0.00,,,0.00,Rainwise IP-100,2013-08-09 00:44:00,
2013-08-08 19:49:00,77.0,76.0,29.88,SW,225,0.0,0.0,97,0.00,,,0.00,Rainwise IP-100,2013-08-09 00:49:00,
2013-08-08 19:54:00,76.0,75.0,29.88,SW,225,0.0,0.0,99,0.00,,,0.00,Rainwise IP-100,2013-08-09 00:54:00,
2013-08-08 19:59:00,76.0,76.0,29.88,SW,225,0.0,0.0,100,0.00,,,0.00,Rainwise IP-100,2013-08-09 00:59:00,
2013-08-08 20:04:00,76.0,76.0,29.89,SW,225,1.0,3.0,100,0.00,,,0.00,Rainwise IP-100,2013-08-09 01:04:00,
2013-08-08 20:09:00,76.0,76.0,29.89,South,180,0.0,3.0,100,0.00,,,0.00,Rainwise IP-100,2013-08-09 01:09:00,
2013-08-08 20:14:00,76.0,76.0,29.89,SW,225,0.0,4.0,100,0.00,,,0.00,Rainwise IP-100,2013-08-09 01:14:00,
2013-08-08 20:19:00,76.0,76.0,29.89,SW,225,0.0,4.0,100,0.00,,,0.00,Rainwise IP-100,2013-08-09 01:19:00,
2013-08-08 20:24:00,76.0,76.0,29.90,SW,225,1.0,3.0,100,0.00,,,0.00,Rainwise IP-100,2013-08-09 01:24:00,
2013-08-08 20:29:00,76.0,76.0,29.90,SW,225,1.0,1.0,100,0.00,,,0.00,Rainwise IP-100,2013-08-09 01:29:00,
2013-08-08 20:34:00,76.0,76.0,29.90,SW,225,0.0,2.0,100,0.00,,,0.00,Rainwise IP-100,2013-08-09 01:34:00,
2013-08-08 20:39:00,75.0,74.0,29.90,South,180,0.0,2.0,99,0.00,,,0.00,Rainwise IP-100,2013-08-09 01:39:00,
2013-08-08 20:44:00,75.0,74.0,29.90,South,180,0.0,0.0,99,0.00,,,0.00,Rainwise IP-100,2013-08-09 01:44:00,
2013-08-08 20:49:00,75.0,74.0,29.90,South,180,0.0,0.0,99,0.00,,,0.00,Rainwise IP-100,2013-08-09 01:49:00,
2013-08-08 20:54:00,75.0,74.0,29.91,South,180,0.0,0.0,99,0.00,,,0.00,Rainwise IP-100,2013-08-09 01:54:00,
2013-08-08 20:59:00,75.0,74.0,29.91,South,180,0.0,0.0,99,0.00,,,0.00,Rainwise IP-100,2013-08-09 01:59:00,
2013-08-08 21:04:00,75.0,74.0,29.91,South,180,0.0,0.0,99,0.00,,,0.00,Rainwise IP-100,2013-08-09 02:04:00,
2013-08-08 21:09:00,75.0,74.0,29.91,South,180,0.0,2.0,99,0.00,,,0.00,Rainwise IP-100,2013-08-09 02:09:00,
2013-08-08 21:14:00,75.0,74.0,29.91,South,180,0.0,0.0,99,0.00,,,0.00,Rainwise IP-100,2013-08-09 02:14:00,
2013-08-08 21:19:00,75.0,74.0,29.91,South,180,0.0,0.0,99,0.00,,,0.00,Rainwise IP-100,2013-08-09 02:19:00,
2013-08-08 21:24:00,75.0,74.0,29.91,South,180,2.0,2.0,99,0.00,,,0.00,Rainwise IP-100,2013-08-09 02:24:00,
2013-08-08 21:29:00,75.0,74.0,29.91,South,180,2.0,3.0,99,0.00,,,0.00,Rainwise IP-100,2013-08-09 02:29:00,
2013-08-08 21:34:00,75.0,74.0,29.91,SSW,202,2.0,3.0,99,0.00,,,0.00,Rainwise IP-100,2013-08-09 02:34:00,
2013-08-08 21:39:00,75.0,74.0,29.91,SSW,202,2.0,4.0,99,0.00,,,0.00,Rainwise IP-100,2013-08-09 02:39:00,
2013-08-08 21:44:00,75.0,74.0,29.91,SW,225,2.0,4.0,99,0.00,,,0.00,Rainwise IP-100,2013-08-09 02:44:00,
2013-08-08 21:49:00,75.0,74.0,29.91,South,180,2.0,3.0,99,0.00,,,0.00,Rainwise IP-100,2013-08-09 02:49:00,
2013-08-08 21:54:00,75.0,74.0,29.91,South,180,0.0,2.0,99,0.00,,,0.00,Rainwise IP-100,2013-08-09 02:54:00,
2013-08-08 21:59:00,75.0,74.0,29.91,South,180,0.0,1.0,99,0.00,,,0.00,Rainwise IP-100,2013-08-09 02:59:00,
2013-08-08 22:04:00,75.0,74.0,29.90,SSW,202,0.0,1.0,99,0.00,,,0.00,Rainwise IP-100,2013-08-09 03:04:00,
2013-08-08 22:09:00,75.0,74.0,29.90,SSW,202,0.0,0.0,99,0.00,,,0.00,Rainwise IP-100,2013-08-09 03:09:00,
2013-08-08 22:14:00,75.0,74.0,29.90,SSW,202,0.0,0.0,99,0.00,,,0.00,Rainwise IP-100,2013-08-09 03:14:00,
2013-08-08 22:19:00,75.0,74.0,29.90,SSW,202,0.0,0.0,99,0.00,,,0.00,Rainwise IP-100,2013-08-09 03:19:00,
2013-08-08 22:24:00,75.0,74.0,29.90,SSW,202,0.0,0.0,99,0.00,,,0.00,Rainwise IP-100,2013-08-09 03:24:00,
2013-08-08 22:29:00,75.0,74.0,29.89,SW,225,2.0,4.0,99,0.00,,,0.00,Rainwise IP-100,2013-08-09 03:29:00,
2013-08-08 22:34:00,75.0,74.0,29.90,NW,315,1.0,6.0,99,0.00,,,0.00,Rainwise IP-100,2013-08-09 03:34:00,
2013-08-08 22:39:00,75.0,74.0,29.90,NW,315,1.0,4.0,99,0.00,,,0.00,Rainwise IP-100,2013-08-09 03:39:00,
2013-08-08 22:44:00,75.0,74.0,29.89,NW,315,0.0,4.0,99,0.00,,,0.00,Rainwise IP-100,2013-08-09 03:44:00,
2013-08-08 22:50:00,75.0,74.0,29.89,NW,315,0.0,0.0,99,0.00,,,0.00,Rainwise IP-100,2013-08-09 03:50:00,
2013-08-08 22:55:00,75.0,74.0,29.89,NW,315,1.0,5.0,99,0.00,,,0.00,Rainwise IP-100,2013-08-09 03:55:00,
2013-08-08 23:00:00,75.0,74.0,29.89,North,360,4.0,5.0,99,0.00,,,0.00,Rainwise IP-100,2013-08-09 04:00:00,
2013-08-08 23:01:00,75.0,74.0,29.89,North,360,1.0,5.0,99,0.00,,,0.00,Rainwise IP-100,2013-08-09 04:01:00,
2013-08-08 23:06:00,75.0,74.0,29.91,SW,225,0.0,5.0,99,0.00,,,0.00,Rainwise IP-100,2013-08-09 04:06:00,
2013-08-08 23:08:00,75.0,74.0,29.91,NW,315,4.0,7.0,99,0.00,,,0.00,Rainwise IP-100,2013-08-09 04:08:00,
2013-08-08 23:13:00,75.0,74.0,29.91,WNW,292,2.0,4.0,99,0.00,,,0.00,Rainwise IP-100,2013-08-09 04:13:00,
2013-08-08 23:18:00,75.0,74.0,29.90,NNW,337,3.0,4.0,99,0.00,,,0.00,Rainwise IP-100,2013-08-09 04:18:00,
2013-08-08 23:23:00,75.0,74.0,29.91,NNW,337,1.0,3.0,99,0.00,,,0.00,Rainwise IP-100,2013-08-09 04:23:00,
2013-08-08 23:28:00,75.0,74.0,29.91,NNW,337,0.0,1.0,99,0.00,,,0.00,Rainwise IP-100,2013-08-09 04:28:00,
2013-08-08 23:33:00,75.0,74.0,29.90,NNW,337,0.0,0.0,99,0.00,,,0.00,Rainwise IP-100,2013-08-09 04:33:00,
2013-08-08 23:38:00,75.0,74.0,29.90,NNW,337,0.0,0.0,99,0.00,,,0.00,Rainwise IP-100,2013-08-09 04:38:00,
2013-08-08 23:41:00,75.0,74.0,29.90,NNW,337,0.0,0.0,99,0.00,,,0.00,Rainwise IP-100,2013-08-09 04:41:00,
2013-08-08 23:46:00,75.0,74.0,29.91,NNW,337,0.0,0.0,99,0.00,,,0.00,Rainwise IP-100,2013-08-09 04:46:00,
2013-08-08 23:51:00,74.0,73.0,29.91,NNW,337,0.0,0.0,99,0.00,,,0.00,Rainwise IP-100,2013-08-09 04:51:00,
2013-08-08 23:56:00,74.0,73.0,29.91,NNW,337,0.0,0.0,99,0.00,,,0.00,Rainwise IP-100,2013-08-09 04:56:00,